When you browse on this site, cookies collect data to enhance your experience and personalize the content and advertising you see.
Visit our Privacy Policy to learn more. By continuing to use the site, you agree to this use of cookies and data.
  • In Hungary
  • List of Countries
  • For 7 days
  • Water Temperature
  • Weather Map
  • News
  • Weather Widgets
  • user-avatar
    Login

    Hourly Weather Amarpur

    Today, 8 December, Sunday

    Time Temperature Precipitation Wind Pressure Humidity
    00:00 +21°C° 0 mm 1 mps 757 mmHg 49%
    01:00 +21°C° 0 mm 1 mps 757 mmHg 50%
    02:00 +20°C° 0 mm 1 mps 757 mmHg 51%
    03:00 +20°C° 0 mm 1 mps 757 mmHg 52%
    04:00 +20°C° 0 mm 1 mps 757 mmHg 52%
    05:00 +19°C° 0 mm 1 mps 757 mmHg 53%
    06:00 +17°C° 0 mm 0 mps 757 mmHg 59%
    07:00 +20°C° 0 mm 1 mps 758 mmHg 55%
    08:00 +22°C° 0 mm 1 mps 758 mmHg 50%
    09:00 +23°C° 0 mm 1 mps 759 mmHg 46%
    10:00 +25°C° 0 mm 1 mps 758 mmHg 42%
    11:00 +26°C° 0 mm 2 mps 758 mmHg 38%
    12:00 +28°C° 0 mm 2 mps 757 mmHg 35%
    13:00 +28°C° 0 mm 2 mps 757 mmHg 35%
    14:00 +28°C° 0 mm 1 mps 756 mmHg 34%
    15:00 +29°C° 0 mm 1 mps 755 mmHg 34%
    16:00 +27°C° 0 mm 1 mps 755 mmHg 37%
    17:00 +26°C° 0 mm 1 mps 755 mmHg 41%
    18:00 +24°C° 0 mm 1 mps 755 mmHg 44%
    19:00 +24°C° 0 mm 1 mps 756 mmHg 45%
    20:00 +23°C° 0 mm 1 mps 756 mmHg 46%
    21:00 +23°C° 0 mm 1 mps 757 mmHg 47%
    22:00 +22°C° 0 mm 1 mps 757 mmHg 49%
    23:00 +22°C° 0 mm 1 mps 757 mmHg 50%

    Tomorrow, 9 December, Monday

    Time Temperature Precipitation Wind Pressure Humidity
    00:00 +19°C° 0 mm 0 mps 756 mmHg 51%
    01:00 +19°C° 0 mm 0 mps 756 mmHg 52%
    02:00 +18°C° 0 mm 0 mps 756 mmHg 53%
    03:00 +18°C° 0 mm 0 mps 756 mmHg 54%
    04:00 +18°C° 0 mm 0 mps 756 mmHg 55%
    05:00 +18°C° 0 mm 0 mps 757 mmHg 56%
    06:00 +17°C° 0 mm 0 mps 757 mmHg 57%
    07:00 +19°C° 0 mm 0 mps 758 mmHg 53%
    08:00 +20°C° 0 mm 0 mps 758 mmHg 50%
    09:00 +22°C° 0 mm 0 mps 759 mmHg 46%
    10:00 +23°C° 0 mm 0 mps 758 mmHg 43%
    11:00 +27°C° 0 mm 1 mps 758 mmHg 40%
    12:00 +28°C° 0 mm 1 mps 758 mmHg 36%
    13:00 +28°C° 0 mm 1 mps 757 mmHg 35%
    14:00 +29°C° 0 mm 1 mps 756 mmHg 34%
    15:00 +29°C° 0 mm 2 mps 755 mmHg 32%
    16:00 +27°C° 0 mm 2 mps 755 mmHg 36%
    17:00 +26°C° 0 mm 2 mps 755 mmHg 39%
    18:00 +24°C° 0 mm 1 mps 755 mmHg 42%
    19:00 +24°C° 0 mm 1 mps 755 mmHg 43%
    20:00 +23°C° 0 mm 1 mps 756 mmHg 45%
    21:00 +23°C° 0 mm 1 mps 756 mmHg 46%
    22:00 +22°C° 0 mm 1 mps 756 mmHg 47%
    23:00 +19°C° 0 mm 0 mps 756 mmHg 49%

    Day after tomorrow, 10 December, Tuesday

    Time Temperature Precipitation Wind Pressure Humidity
    00:00 +19°C° 0 mm 0 mps 755 mmHg 50%
    01:00 +18°C° 0 mm 0 mps 755 mmHg 51%
    02:00 +18°C° 0 mm 0 mps 755 mmHg 51%
    03:00 +18°C° 0 mm 0 mps 755 mmHg 52%
    04:00 +17°C° 0 mm 0 mps 755 mmHg 53%
    05:00 +19°C° 0 mm 1 mps 755 mmHg 54%
    06:00 +18°C° 0 mm 1 mps 755 mmHg 54%
    07:00 +20°C° 0 mm 1 mps 755 mmHg 50%
    08:00 +21°C° 0 mm 1 mps 756 mmHg 47%
    09:00 +23°C° 0 mm 1 mps 756 mmHg 43%
    10:00 +24°C° 0 mm 1 mps 756 mmHg 39%
    11:00 +26°C° 0 mm 2 mps 756 mmHg 35%
    12:00 +27°C° 0 mm 2 mps 755 mmHg 31%
    13:00 +28°C° 0 mm 2 mps 755 mmHg 29%
    14:00 +28°C° 0 mm 3 mps 754 mmHg 28%
    15:00 +28°C° 0 mm 3 mps 753 mmHg 27%
    16:00 +27°C° 0 mm 3 mps 753 mmHg 31%
    17:00 +25°C° 0 mm 2 mps 753 mmHg 34%
    18:00 +23°C° 0 mm 2 mps 753 mmHg 38%
    19:00 +23°C° 0 mm 1 mps 753 mmHg 39%
    20:00 +22°C° 0 mm 1 mps 754 mmHg 41%
    21:00 +21°C° 0 mm 1 mps 754 mmHg 42%
    22:00 +21°C° 0 mm 1 mps 754 mmHg 43%
    23:00 +18°C° 0 mm 0 mps 754 mmHg 45%

    11 December, Wednesday

    Time Temperature Precipitation Wind Pressure Humidity
    00:00 +18°C° 0 mm 0 mps 754 mmHg 46%
    01:00 +18°C° 0 mm 0 mps 754 mmHg 47%
    02:00 +17°C° 0 mm 0 mps 754 mmHg 48%
    03:00 +17°C° 0 mm 0 mps 754 mmHg 49%
    04:00 +16°C° 0 mm 0 mps 754 mmHg 50%
    05:00 +16°C° 0 mm 0 mps 754 mmHg 50%
    06:00 +18°C° 0 mm 1 mps 754 mmHg 51%
    07:00 +19°C° 0 mm 1 mps 755 mmHg 47%
    08:00 +21°C° 0 mm 1 mps 756 mmHg 44%
    09:00 +21°C° 0 mm 0 mps 756 mmHg 40%
    10:00 +24°C° 0 mm 1 mps 756 mmHg 36%
    11:00 +26°C° 0 mm 1 mps 756 mmHg 33%
    12:00 +27°C° 0 mm 1 mps 755 mmHg 29%
    13:00 +27°C° 0 mm 1 mps 755 mmHg 28%
    14:00 +28°C° 0 mm 1 mps 754 mmHg 26%
    15:00 +28°C° 0 mm 2 mps 753 mmHg 25%
    16:00 +26°C° 0 mm 2 mps 753 mmHg 28%
    17:00 +25°C° 0 mm 2 mps 753 mmHg 30%
    18:00 +23°C° 0 mm 2 mps 753 mmHg 33%
    19:00 +23°C° 0 mm 1 mps 754 mmHg 34%
    20:00 +22°C° 0 mm 1 mps 754 mmHg 35%
    21:00 +22°C° 0 mm 1 mps 754 mmHg 36%
    22:00 +21°C° 0 mm 1 mps 754 mmHg 37%
    23:00 +21°C° 0 mm 1 mps 755 mmHg 38%

    12 December, Thursday

    Time Temperature Precipitation Wind Pressure Humidity
    00:00 +20°C° 0 mm 1 mps 755 mmHg 39%
    01:00 +20°C° 0 mm 1 mps 754 mmHg 40%
    02:00 +19°C° 0 mm 1 mps 754 mmHg 42%
    03:00 +17°C° 0 mm 0 mps 754 mmHg 43%
    04:00 +19°C° 0 mm 1 mps 754 mmHg 45%
    05:00 +18°C° 0 mm 1 mps 755 mmHg 46%
    06:00 +18°C° 0 mm 1 mps 755 mmHg 48%
    07:00 +19°C° 0 mm 1 mps 756 mmHg 47%
    08:00 +21°C° 0 mm 1 mps 756 mmHg 45%
    09:00 +22°C° 0 mm 1 mps 757 mmHg 44%
    10:00 +23°C° 0 mm 2 mps 757 mmHg 42%
    11:00 +25°C° 0 mm 2 mps 756 mmHg 39%
    12:00 +26°C° 0 mm 2 mps 756 mmHg 37%
    13:00 +26°C° 0 mm 2 mps 756 mmHg 36%
    14:00 +27°C° 0 mm 2 mps 755 mmHg 34%
    15:00 +27°C° 0 mm 2 mps 754 mmHg 33%
    16:00 +26°C° 0 mm 2 mps 754 mmHg 37%
    17:00 +24°C° 0 mm 2 mps 754 mmHg 41%
    18:00 +22°C° 0 mm 3 mps 755 mmHg 45%
    19:00 +21°C° 0 mm 2 mps 755 mmHg 47%
    20:00 +21°C° 0 mm 2 mps 755 mmHg 49%
    21:00 +20°C° 0 mm 2 mps 756 mmHg 51%
    22:00 +20°C° 0 mm 2 mps 756 mmHg 53%
    23:00 +19°C° 0 mm 2 mps 756 mmHg 54%

    13 December, Friday

    Time Temperature Precipitation Wind Pressure Humidity
    00:00 +19°C° 0 mm 2 mps 756 mmHg 56%
    01:00 +19°C° 0 mm 1 mps 755 mmHg 58%
    02:00 +19°C° 0 mm 1 mps 755 mmHg 60%
    03:00 +19°C° 0 mm 1 mps 755 mmHg 62%
    04:00 +18°C° 0 mm 1 mps 755 mmHg 63%
    05:00 +18°C° 0 mm 1 mps 755 mmHg 64%
    06:00 +16°C° 0 mm 0 mps 755 mmHg 66%
    07:00 +19°C° 0 mm 1 mps 756 mmHg 61%
    08:00 +21°C° 0 mm 1 mps 757 mmHg 57%
    09:00 +22°C° 0 mm 1 mps 757 mmHg 52%
    10:00 +24°C° 0 mm 2 mps 757 mmHg 48%
    11:00 +25°C° 0 mm 2 mps 757 mmHg 44%
    12:00 +27°C° 0 mm 2 mps 756 mmHg 40%
    13:00 +27°C° 0 mm 2 mps 756 mmHg 39%
    14:00 +28°C° 0 mm 1 mps 755 mmHg 38%
    15:00 +28°C° 0 mm 1 mps 755 mmHg 37%
    16:00 +27°C° 0 mm 1 mps 755 mmHg 40%
    17:00 +25°C° 0 mm 2 mps 755 mmHg 44%
    18:00 +24°C° 0 mm 3 mps 755 mmHg 48%
    19:00 +24°C° 0 mm 2 mps 755 mmHg 49%
    20:00 +23°C° 0 mm 2 mps 756 mmHg 49%
    21:00 +23°C° 0 mm 2 mps 756 mmHg 50%
    22:00 +21°C° 0 mm 2 mps 756 mmHg 51%
    23:00 +22°C° 0 mm 1 mps 756 mmHg 52%
    Show more